Temp
83 84 84 81 66 68 69 72 79 72 70 76 77 73 72 73 71 60 78 83 83 81 82 83 82 83 83 82 82 82 83 83 83 83 83 83 84 83 84 84 84 84 84 84 84 84 84 84 84
87 91 85 78 68 63 64 77 75 79 79 79 80 79 74 70 79 78 78 84 84 83 81 81 82 83 83 82 82 83 84 83 83 83 83 83 84 84 84 84 84 84 84 84 84 84 84 84 84
85 92 78 72 69 65 65 78 81 84 81 81 79 83 78 72 81 81 86 87 85 82 81 82 82 83 83 83 83 83 83 84 83 83 84 84 84 84 84 84 84 84 84 84 84 84 84 84 84
86 80 81 73 69 77 78 82 85 83 85 87 82 73 80 85 83 85 87 85 82 81 82 83 83 83 84 84 83 83 83 83 83 84 84 84 84 85 84 84 84 84 84 84 84 84 84 84 84
83 75 66 70 75 81 84 88 87 82 82 81 80 72 73 83 87 87 86 86 82 80 81 82 83 83 83 83 83 83 84 84 83 84 84 84 84 85 84 84 85 85 85 85 85 85 84 84 84
75 74 65 68 73 80 86 89 86 82 83 81 76 74 74 84 85 86 88 85 84 82 81 82 83 83 83 84 84 84 84 84 83 84 84 84 84 84 84 85 85 85 85 85 85 84 84 84 84
71 68 61 73 73 76 80 89 83 83 82 81 82 71 76 82 86 89 88 87 85 84 81 80 81 83 84 84 84 84 84 84 84 84 84 84 84 84 84 85 85 85 85 85 85 84 84 83 83
77 71 69 70 74 73 84 87 88 85 81 90 88 73 73 82 88 89 88 87 84 82 81 79 79 79 79 80 84 84 84 84 84 84 84 84 84 84 84 81 82 85 86 86 85 84 83 84 83
90 64 67 65 69 74 85 86 91 92 86 87 89 85 86 89 88 85 83 84 82 83 82 81 80 79 77 79 82 83 84 84 84 84 84 83 77 75 78 79 82 83 85 85 84 84 83 84 84
78 70 78 80 84 77 82 82 79 84 84 82 84 89 90 89 84 82 82 79 80 80 82 83 82 81 80 85 79 78 80 79 78 79 78 76 76 74 77 78 82 84 85 85 85 84 84 85 79
85 78 88 88 89 83 80 81 81 78 79 82 79 83 88 86 82 82 82 81 79 81 83 82 81 80 80 77 77 77 76 77 78 78 77 76 77 74 75 73 76 76 81 80 82 80 80 79 80
88 93 91 88 87 82 78 78 81 80 79 88 87 87 86 85 84 85 85 82 84 82 84 82 82 79 79 80 78 78 80 78 77 79 81 75 76 75 77 76 77 77 78 80 78 77 79 79 80
88 90 92 92 89 82 83 77 77 80 86 90 89 88 84 84 84 85 85 85 83 83 84 83 80 79 78 78 78 80 82 81 82 79 79 82 78 76 78 77 77 78 77 77 76 77 77 77 79
93 91 91 91 88 89 82 78 79 81 88 88 87 84 85 84 84 84 83 81 84 83 83 83 80 82 80 79 78 78 80 80 82 78 80 82 80 77 76 76 76 76 76 76 75 75 75 75 76
94 84 90 89 88 85 88 78 78 86 88 85 85 85 86 86 86 83 83 82 82 83 83 82 79 80 79 78 78 78 78 80 78 79 81 80 79 78 75 75 75 75 75 76 76 75 75 75 77
84 81 71 82 85 87 81 68 81 86 84 82 85 86 86 84 85 85 85 83 82 83 84 84 86 81 78 77 77 78 78 78 79 82 81 82 81 78 75 75 75 76 76 75 73 73 72 72 72
77 67 72 76 83 84 78 72 82 86 84 82 84 85 85 83 84 85 86 84 83 83 83 83 82 80 78 78 77 77 78 77 77 78 81 82 81 79 75 75 75 76 73 73 72 73 71 71 71
68 71 75 74 81 83 77 74 82 85 84 83 84 84 83 84 84 85 85 85 83 85 81 83 80 79 79 76 76 76 75 76 77 76 75 78 77 79 75 73 73 73 72 71 71 71 71 71 70
82 79 75 82 86 79 75 77 80 84 84 81 80 80 82 83 84 85 86 86 84 83 81 80 81 78 75 74 73 73 72 74 74 76 79 78 77 78 75 73 74 72 72 72 72 72 71 69 70
82 79 74 80 86 78 75 75 81 78 78 84 82 81 82 81 82 83 84 84 84 82 79 79 78 78 77 75 75 75 74 75 75 76 77 77 78 78 78 74 73 72 71 70 70 69 67 68 69
79 74 77 76 82 84 77 68 66 77 81 85 86 85 85 82 81 81 82 83 84 81 79 78 77 77 77 77 76 75 75 74 73 76 76 78 79 77 75 75 73 72 70 69 69 69 68 65 67
68 84 85 82 76 62 76 55 63 70 73 82 84 84 84 83 84 83 82 80 82 82 82 79 78 77 78 78 75 74 71 68 71 71 71 73 75 75 76 75 73 71 69 69 69 71 68 67 64
78 86 82 81 71 67 70 61 64 70 68 78 82 84 86 85 85 84 84 84 84 85 82 80 78 77 77 75 73 70 68 70 69 69 69 70 72 74 76 74 72 70 69 68 69 68 68 67 65
89 80 77 75 66 55 65 64 58 66 73 81 84 87 88 86 86 86 87 87 84 85 83 81 77 75 75 74 73 71 70 68 67 68 68 68 70 69 72 73 71 70 69 69 68 68 68 66 66
80 65 55 53 54 55 66 65 62 77 83 83 78 81 82 89 86 85 85 85 83 82 82 80 76 73 73 73 73 72 71 70 70 70 68 68 67 68 69 71 70 69 69 70 68 68 67 67 66
73 68 56 50 52 61 74 64 68 84 86 87 85 85 89 82 89 86 85 85 83 82 80 79 76 72 72 72 71 71 71 70 69 69 68 68 67 68 70 70 71 71 71 70 69 68 67 67 66
74 65 74 62 66 58 65 71 77 82 81 84 83 83 86 87 87 87 86 85 84 81 79 77 76 73 72 72 71 71 71 71 69 70 70 68 69 72 71 72 71 70 70 69 68 66 66 66 66
77 80 63 60 50 50 61 64 63 69 74 79 78 78 80 82 88 88 85 85 84 82 80 78 77 76 74 72 72 72 71 71 70 70 69 69 69 70 70 70 70 70 69 69 68 66 67 66 65
71 68 66 65 60 53 52 58 69 75 77 77 80 82 81 83 82 79 82 85 83 82 79 78 77 76 74 73 72 72 71 71 70 70 70 69 69 70 70 70 69 69 68 68 67 67 67 66 64
79 73 68 57 57 59 58 61 84 79 79 80 81 82 83 83 83 84 86 84 84 81 78 77 78 75 73 73 73 71 71 71 70 69 70 70 69 70 70 69 68 68 69 68 67 67 68 66 64
MSLP
1005.89 1006.10 1006.88 1006.77 1007.24 1006.34 1006.17 1006.36 1006.21 1008.12 1009.27 1009.32 1009.74 1009.44 1009.75 1009.95 1010.63 1013.21 1013.51 1013.82 1014.46 1015.03 1015.23 1015.55 1015.81 1016.03 1016.08 1016.28 1016.56 1016.83 1017.14 1017.23 1017.22 1017.36 1017.41 1017.57 1018.02 1018.19 1018.34 1018.25 1018.33 1018.49 1018.60 1018.61 1018.79 1018.80 1018.88 1018.98 1018.84
1005.26 1005.47 1006.46 1006.13 1006.00 1005.33 1005.69 1005.46 1005.56 1006.53 1007.66 1008.88 1009.20 1009.12 1009.57 1011.01 1011.03 1012.48 1013.38 1013.84 1014.13 1014.74 1015.26 1015.70 1016.03 1016.03 1016.27 1016.50 1016.83 1017.01 1017.32 1017.43 1017.50 1017.56 1017.84 1018.06 1018.23 1018.27 1018.43 1018.41 1018.49 1018.61 1018.73 1018.81 1018.85 1018.97 1018.99 1019.14 1019.06
1005.18 1004.93 1005.24 1005.36 1004.58 1004.64 1004.98 1004.89 1005.24 1006.23 1007.59 1008.04 1008.52 1008.83 1010.15 1011.34 1011.95 1012.37 1013.02 1013.51 1014.06 1014.81 1015.33 1015.77 1016.08 1016.12 1016.30 1016.69 1016.96 1017.13 1017.33 1017.54 1017.67 1017.78 1018.06 1018.17 1018.33 1018.41 1018.45 1018.49 1018.64 1018.84 1018.80 1018.81 1018.80 1019.00 1019.10 1019.08 1019.16
1004.34 1004.74 1004.55 1004.03 1004.18 1003.95 1004.26 1004.58 1005.00 1006.10 1006.97 1007.67 1008.35 1009.59 1010.85 1011.50 1011.76 1012.64 1013.20 1013.79 1014.41 1015.03 1015.44 1015.83 1016.06 1016.19 1016.44 1016.61 1016.92 1017.20 1017.38 1017.69 1017.92 1018.08 1018.21 1018.43 1018.48 1018.59 1018.67 1018.80 1018.92 1019.00 1018.95 1018.89 1018.88 1019.04 1019.24 1019.11 1019.19
1004.40 1005.59 1005.65 1004.29 1004.02 1003.78 1003.69 1003.87 1004.88 1006.22 1007.16 1008.18 1009.01 1010.62 1011.43 1012.02 1012.28 1012.73 1013.44 1013.94 1014.57 1015.25 1015.62 1015.94 1016.18 1016.43 1016.60 1016.88 1017.11 1017.34 1017.57 1017.90 1018.12 1018.35 1018.54 1018.61 1018.65 1018.78 1018.87 1018.98 1019.08 1019.07 1018.97 1018.87 1018.99 1019.18 1019.22 1019.22 1019.18
1005.46 1006.58 1006.68 1005.37 1004.54 1003.91 1003.75 1004.09 1005.13 1006.44 1007.57 1008.70 1009.69 1010.41 1011.85 1012.42 1012.54 1013.01 1013.44 1013.99 1014.47 1015.19 1015.61 1015.89 1016.22 1016.41 1016.69 1017.05 1017.29 1017.47 1017.79 1017.98 1018.28 1018.49 1018.69 1018.72 1018.71 1018.73 1018.86 1018.95 1019.00 1019.13 1019.05 1018.93 1018.92 1019.09 1019.12 1019.19 1019.06
1007.37 1007.25 1007.55 1005.59 1005.12 1004.44 1004.31 1004.10 1005.27 1006.49 1007.69 1008.42 1009.52 1010.49 1011.83 1012.16 1012.45 1012.79 1013.34 1013.94 1014.51 1015.09 1015.60 1016.03 1016.35 1016.56 1016.81 1017.13 1017.39 1017.70 1017.92 1018.11 1018.45 1018.77 1018.77 1018.71 1018.68 1018.80 1018.79 1018.94 1019.02 1019.00 1019.11 1018.93 1018.81 1018.92 1019.02 1019.08 1019.02
1006.55 1007.86 1007.68 1006.84 1006.15 1004.99 1004.41 1004.29 1005.01 1006.13 1007.49 1008.39 1008.87 1010.42 1011.07 1011.60 1012.34 1012.87 1013.40 1014.05 1014.65 1015.25 1015.69 1016.19 1016.46 1016.65 1016.97 1017.24 1017.48 1017.78 1018.01 1018.30 1018.62 1018.85 1018.76 1018.73 1018.67 1018.53 1018.73 1019.00 1019.02 1018.98 1019.03 1018.97 1018.80 1018.89 1018.97 1018.99 1018.88
1004.80 1006.10 1007.39 1007.70 1006.33 1005.70 1004.55 1004.96 1005.39 1005.85 1007.21 1008.07 1008.27 1009.34 1010.32 1011.33 1012.23 1012.95 1013.83 1014.36 1014.86 1015.45 1015.75 1015.93 1016.37 1016.70 1016.95 1017.28 1017.52 1017.77 1018.04 1018.34 1018.62 1018.78 1018.68 1018.67 1018.71 1018.69 1018.78 1018.80 1018.90 1018.84 1018.78 1018.76 1018.54 1018.73 1018.65 1018.64 1018.71
1004.43 1004.30 1003.88 1005.18 1005.27 1004.96 1005.19 1005.85 1006.53 1006.56 1007.44 1008.41 1008.98 1009.72 1010.49 1011.27 1012.29 1012.97 1013.69 1014.40 1014.94 1015.32 1015.65 1015.82 1016.08 1016.36 1016.79 1016.96 1017.31 1017.53 1017.77 1018.07 1018.39 1018.59 1018.65 1018.72 1018.79 1018.69 1018.47 1018.63 1018.71 1018.69 1018.46 1018.44 1018.28 1018.34 1018.32 1018.39 1018.47
1002.83 1002.95 1003.04 1003.53 1004.66 1005.34 1005.73 1006.40 1006.64 1007.12 1007.68 1007.93 1008.80 1009.72 1010.40 1011.38 1012.11 1012.81 1013.53 1014.11 1014.49 1014.94 1015.23 1015.50 1015.73 1016.26 1016.63 1017.08 1017.30 1017.55 1017.70 1017.90 1018.12 1018.38 1018.59 1018.66 1018.70 1018.77 1018.84 1018.86 1018.86 1018.59 1018.38 1018.33 1018.21 1018.14 1018.13 1018.24 1018.26
1000.87 1001.11 1001.74 1003.40 1004.01 1005.46 1006.12 1006.80 1006.77 1006.68 1008.24 1008.09 1009.02 1009.86 1010.35 1011.15 1011.98 1012.31 1012.89 1013.79 1014.26 1014.73 1015.09 1015.31 1015.60 1016.12 1016.47 1016.56 1017.02 1017.27 1017.44 1017.69 1017.88 1018.07 1018.09 1018.51 1018.54 1018.63 1018.59 1018.73 1018.59 1018.42 1018.25 1018.18 1018.23 1018.07 1017.95 1017.98 1017.90
1000.10 1000.81 1001.63 1002.74 1003.84 1005.23 1006.22 1007.20 1007.54 1007.79 1008.09 1008.42 1009.28 1010.07 1010.69 1011.18 1011.61 1012.32 1012.72 1013.49 1013.94 1014.48 1014.92 1015.24 1015.63 1016.03 1016.46 1016.75 1016.80 1016.96 1016.92 1017.11 1017.20 1017.49 1017.66 1017.86 1018.21 1018.37 1018.17 1018.31 1018.21 1018.09 1018.17 1018.18 1018.05 1018.03 1018.08 1017.99 1017.85
1000.02 1000.47 1001.37 1002.19 1003.17 1004.34 1005.45 1007.31 1007.36 1008.04 1008.20 1008.73 1009.58 1010.31 1010.85 1011.22 1011.66 1012.19 1012.73 1013.43 1013.84 1014.33 1014.84 1015.21 1015.56 1015.57 1015.87 1016.34 1016.35 1016.47 1016.53 1016.72 1016.81 1017.18 1017.32 1017.41 1017.63 1017.95 1018.01 1018.14 1018.21 1018.28 1018.24 1018.18 1018.15 1018.10 1018.02 1017.98 1017.92
999.95 1000.80 1001.54 1002.23 1002.96 1004.14 1004.86 1007.28 1007.75 1007.96 1008.24 1008.96 1009.66 1010.27 1010.71 1011.04 1011.49 1012.07 1012.66 1013.22 1013.67 1014.12 1014.83 1015.13 1015.33 1015.34 1015.80 1016.12 1016.27 1016.48 1016.62 1016.70 1016.74 1016.93 1016.97 1017.02 1017.24 1017.41 1017.72 1017.90 1018.08 1018.17 1018.05 1017.99 1018.03 1018.05 1018.00 1018.03 1017.68
1000.30 1000.98 1002.07 1002.65 1003.17 1004.32 1004.51 1006.82 1007.60 1007.90 1008.48 1009.04 1009.53 1009.84 1010.27 1010.80 1011.28 1011.77 1012.35 1012.89 1013.46 1013.82 1014.17 1014.69 1015.03 1015.41 1015.73 1016.11 1016.30 1016.53 1016.59 1016.60 1016.65 1016.62 1016.72 1016.73 1016.78 1017.10 1017.43 1017.76 1017.87 1017.83 1017.80 1017.84 1017.93 1018.22 1018.19 1018.09 1017.98
1000.57 1001.40 1002.35 1003.52 1003.03 1003.71 1004.42 1006.51 1006.79 1007.52 1008.07 1008.59 1008.92 1009.34 1009.89 1010.45 1011.03 1011.52 1011.96 1012.58 1013.10 1013.54 1013.95 1014.45 1014.84 1015.29 1015.64 1016.00 1016.27 1016.48 1016.43 1016.49 1016.55 1016.59 1016.50 1016.47 1016.68 1016.88 1017.33 1017.54 1017.63 1017.70 1017.83 1017.89 1018.04 1017.98 1018.13 1018.15 1018.04
1000.94 1001.42 1002.26 1002.67 1003.45 1003.64 1004.52 1005.74 1006.41 1007.05 1007.57 1007.90 1008.32 1008.97 1009.54 1010.03 1010.66 1011.12 1011.71 1012.11 1012.66 1013.10 1013.74 1014.14 1014.56 1015.08 1015.63 1016.01 1016.28 1016.44 1016.60 1016.42 1016.38 1016.45 1016.63 1016.69 1016.80 1016.72 1017.14 1017.48 1017.55 1017.61 1017.94 1017.97 1017.98 1018.08 1017.98 1018.00 1017.95
1000.12 1000.67 1001.72 1002.82 1002.86 1003.56 1004.54 1005.64 1006.18 1006.75 1007.22 1007.68 1008.06 1008.31 1008.91 1009.49 1010.25 1010.85 1011.45 1011.98 1012.52 1013.02 1013.63 1014.11 1014.49 1014.91 1015.50 1016.05 1016.54 1016.64 1016.72 1016.56 1016.51 1016.30 1016.15 1016.37 1016.49 1016.58 1016.96 1017.26 1017.39 1017.57 1017.92 1017.96 1017.95 1017.83 1017.89 1018.10 1017.94
999.47 1000.43 1000.62 1001.01 1002.23 1003.03 1004.39 1005.67 1006.15 1007.00 1007.55 1006.91 1007.52 1007.85 1008.34 1009.01 1010.01 1010.65 1011.23 1011.79 1012.31 1012.87 1013.45 1013.93 1014.37 1014.78 1015.35 1015.75 1015.96 1016.22 1016.38 1016.31 1016.13 1015.98 1016.03 1016.31 1016.44 1016.54 1016.83 1017.06 1017.52 1017.47 1017.82 1017.91 1017.99 1017.97 1018.20 1018.13 1017.99
998.95 999.52 1000.09 1000.51 1001.80 1002.77 1004.49 1006.45 1006.82 1006.30 1005.60 1006.27 1006.35 1007.15 1007.88 1008.38 1009.40 1010.34 1010.96 1011.49 1012.10 1012.83 1013.28 1013.74 1014.15 1014.51 1014.97 1015.33 1015.73 1016.07 1016.22 1016.24 1016.29 1016.32 1016.29 1016.37 1016.47 1016.57 1016.78 1016.97 1017.19 1017.56 1017.84 1018.03 1018.15 1018.12 1018.32 1018.44 1018.17
998.41 998.57 998.89 1000.19 1001.30 1003.70 1003.73 1006.35 1007.09 1006.86 1006.12 1005.76 1005.65 1006.31 1006.91 1008.04 1008.70 1009.52 1010.49 1011.08 1011.72 1012.41 1012.89 1013.37 1013.95 1014.35 1014.73 1015.09 1015.56 1015.98 1016.20 1016.54 1016.38 1016.43 1016.50 1016.57 1016.49 1016.60 1016.66 1016.81 1017.18 1017.54 1017.71 1018.02 1018.13 1018.17 1018.26 1018.42 1018.55
998.02 998.32 999.06 999.97 1001.36 1002.09 1003.21 1004.17 1004.92 1006.33 1006.00 1005.14 1005.26 1005.60 1006.17 1006.89 1007.72 1008.53 1009.51 1010.48 1011.20 1011.89 1012.49 1013.04 1013.71 1014.20 1014.54 1014.97 1015.22 1015.85 1016.15 1016.28 1016.40 1016.59 1016.60 1016.37 1016.43 1016.34 1016.48 1016.89 1017.09 1017.51 1017.60 1017.82 1017.92 1017.99 1018.09 1018.20 1018.39
997.73 998.49 999.51 1000.23 1001.52 1002.36 1002.55 1003.41 1004.88 1004.55 1003.69 1003.42 1003.26 1004.62 1004.93 1005.88 1006.83 1007.54 1008.34 1009.50 1010.47 1011.22 1011.99 1012.79 1013.66 1014.22 1014.48 1014.68 1015.09 1015.38 1015.88 1016.22 1016.50 1016.59 1016.62 1016.65 1016.65 1016.77 1016.67 1016.90 1017.00 1017.22 1017.38 1017.60 1017.66 1017.83 1017.93 1017.97 1018.02
997.81 999.23 1000.61 1001.89 1002.42 1002.55 1001.99 1002.30 1001.90 1001.90 1001.94 1002.26 1002.98 1003.26 1003.95 1004.53 1005.60 1006.58 1007.42 1008.56 1009.79 1010.63 1011.46 1012.35 1013.31 1014.25 1014.49 1014.72 1015.00 1015.21 1015.58 1015.83 1016.21 1016.34 1016.60 1016.82 1016.84 1016.94 1016.90 1016.78 1017.12 1017.36 1017.20 1017.25 1017.31 1017.56 1017.65 1017.66 1017.82
998.06 999.28 1000.72 1001.97 1002.69 1002.40 1001.27 1001.07 999.98 999.90 1000.10 1001.05 1001.70 1002.07 1002.71 1004.03 1004.67 1005.79 1006.80 1007.80 1008.71 1009.80 1010.56 1011.58 1012.67 1013.75 1014.35 1014.71 1014.98 1015.13 1015.36 1015.66 1015.94 1016.10 1016.36 1016.39 1016.56 1016.69 1016.59 1016.74 1016.80 1016.90 1016.96 1017.04 1017.09 1017.30 1017.39 1017.47 1017.59
997.70 998.58 999.57 1001.34 1001.88 1002.24 1000.90 999.24 998.71 999.11 1000.04 1000.82 1001.35 1001.95 1002.31 1003.17 1004.27 1005.60 1006.18 1007.13 1008.14 1009.13 1010.10 1010.74 1011.81 1012.71 1013.80 1014.45 1014.77 1014.98 1015.25 1015.53 1015.91 1015.94 1016.02 1016.19 1016.33 1016.44 1016.48 1016.37 1016.69 1016.61 1016.66 1016.74 1017.01 1017.17 1017.25 1017.31 1017.33
996.66 997.92 999.58 1000.96 1002.49 1002.62 1001.26 1000.29 999.79 999.59 999.73 1000.43 1001.33 1001.87 1002.17 1002.81 1003.77 1003.98 1005.78 1006.68 1007.62 1008.53 1009.32 1010.21 1011.09 1011.82 1012.73 1013.61 1014.27 1014.64 1015.02 1015.23 1015.42 1015.68 1015.84 1015.95 1016.08 1016.20 1016.27 1016.31 1016.43 1016.48 1016.48 1016.60 1016.73 1016.74 1016.79 1016.92 1017.04
996.53 997.52 999.08 1000.51 1001.75 1002.35 1001.77 1001.33 999.87 999.74 1000.05 1000.26 1000.53 1001.09 1001.74 1002.78 1003.61 1004.33 1005.53 1006.43 1006.92 1007.83 1008.87 1009.63 1010.54 1011.29 1012.13 1012.84 1013.49 1014.17 1014.65 1014.89 1015.04 1015.25 1015.56 1015.70 1015.87 1015.98 1016.06 1016.10 1016.20 1016.25 1016.35 1016.43 1016.43 1016.38 1016.39 1016.55 1016.64
995.65 996.86 998.41 1000.32 1001.40 1001.53 1001.31 1000.60 998.76 999.19 999.58 999.98 1000.43 1000.90 1001.08 1002.01 1003.12 1003.58 1004.02 1005.46 1006.72 1007.31 1008.35 1008.96 1009.80 1010.57 1011.55 1012.23 1012.70 1013.64 1014.15 1014.51 1014.92 1015.05 1015.21 1015.45 1015.57 1015.63 1015.71 1015.76 1015.91 1016.03 1016.02 1015.95 1015.91 1015.88 1015.85 1016.05 1016.25
Wind_Speed
9 9 4 2 2 2 10 17 12 16 12 8 19 5 6 4 2 10 8 17 17 13 12 13 16 17 17 17 18 18 17 16 16 16 16 16 14 13 12 12 12 11 10 11 9 9 9 8 8
5 7 5 4 2 9 5 9 12 17 18 19 12 16 21 20 17 17 10 18 18 14 11 12 15 17 18 18 18 17 17 16 16 16 15 14 13 12 12 13 12 11 10 8 8 8 8 6 5
6 9 4 5 3 10 6 8 18 25 26 22 15 18 9 17 14 7 14 16 16 14 12 13 16 17 18 17 18 17 17 16 15 15 14 14 13 12 12 11 11 9 8 8 7 6 6 5 4
2 4 4 2 10 14 13 16 21 23 21 20 18 13 9 14 10 15 20 18 16 14 13 15 16 16 15 16 17 17 16 15 14 14 14 13 12 12 11 9 8 7 6 6 6 5 4 3 2
1 4 4 7 15 13 11 16 19 19 20 24 24 17 12 20 19 17 16 15 16 12 11 11 14 15 15 14 16 16 15 14 13 12 11 11 11 9 8 7 5 5 5 5 3 3 2 3 2
8 4 4 9 9 5 13 21 23 22 19 23 24 20 13 19 18 16 16 15 15 13 11 10 14 14 14 15 16 15 14 14 12 11 10 9 8 7 6 5 4 2 2 2 2 1 1 2 2
11 5 4 6 5 5 4 22 19 18 19 16 20 19 13 18 17 17 16 16 17 14 10 8 8 12 14 14 14 13 13 12 11 10 8 7 6 5 4 3 3 4 4 4 4 4 4 4 5
6 5 5 17 7 5 3 13 24 19 20 19 20 13 18 19 20 15 15 15 16 13 11 9 7 6 6 7 13 13 11 11 10 9 7 6 6 5 2 5 5 7 8 8 7 6 5 5 7
3 3 9 15 3 3 15 16 11 22 22 19 8 17 15 25 22 17 15 14 12 11 11 10 9 8 7 6 8 10 12 10 9 8 7 6 3 3 6 8 10 8 11 11 9 9 8 9 8
6 4 14 16 14 17 13 12 6 7 19 20 19 15 20 22 21 18 15 11 10 11 12 11 11 10 9 8 7 7 8 5 5 6 6 4 4 4 6 9 10 13 13 9 11 10 9 8 3
13 9 21 14 14 14 9 8 6 9 13 22 23 19 15 20 18 18 16 17 12 12 9 8 8 7 8 7 4 3 2 3 5 7 6 5 4 4 5 3 4 4 9 3 6 5 3 5 4
10 19 17 15 21 8 7 7 5 7 4 22 19 16 7 11 15 13 13 10 13 13 11 9 8 9 7 6 4 4 4 4 4 5 7 4 3 4 3 3 3 2 1 1 2 1 2 3 4
9 11 19 23 20 17 18 11 6 6 3 20 19 14 10 8 7 11 11 14 8 10 11 9 7 7 6 5 3 4 6 5 7 5 6 5 4 4 3 2 1 3 1 1 2 3 3 4 5
3 8 19 15 18 19 21 8 8 6 7 19 18 12 11 10 9 7 10 9 7 9 10 10 7 8 7 4 3 1 2 3 4 4 5 6 4 4 3 2 1 3 3 2 1 3 4 4 4
6 8 13 15 20 20 23 14 11 14 15 15 15 14 12 12 11 9 9 10 10 5 14 11 9 7 7 6 3 2 2 3 0 4 6 7 6 6 6 4 2 3 3 3 3 4 4 4 5
6 8 7 10 12 13 14 14 15 15 15 14 15 15 13 10 12 10 10 10 9 8 7 10 9 7 6 4 3 2 2 3 2 2 2 5 6 4 4 3 2 3 3 2 2 3 4 4 3
6 6 15 6 6 6 8 16 20 18 17 17 17 15 13 11 11 9 10 10 9 10 9 8 8 9 8 6 4 4 5 4 2 2 3 2 5 6 4 1 2 2 3 3 3 3 1 3 4
8 6 16 12 10 7 9 10 19 19 18 17 15 15 14 13 14 13 11 12 10 9 8 7 6 7 8 5 4 3 3 3 2 2 0 3 3 4 3 0 3 3 3 4 3 3 3 3 4
11 10 11 7 9 8 8 15 16 16 14 9 10 12 14 13 16 16 12 11 11 10 8 8 7 7 6 3 3 2 2 3 3 4 6 2 1 3 2 1 1 2 3 4 5 3 3 2 2
10 12 12 14 17 10 9 12 12 9 4 16 13 12 14 10 18 16 14 13 11 12 9 9 8 9 6 4 3 2 2 4 3 3 2 2 1 3 3 3 1 2 2 4 4 4 2 2 2
11 7 13 13 18 13 12 3 4 12 14 16 17 16 11 16 18 16 14 13 12 14 12 10 9 8 6 6 3 1 1 2 1 3 4 3 4 5 5 3 2 3 3 4 4 4 5 3 2
7 5 5 4 17 10 12 7 7 20 15 17 19 18 14 18 16 14 13 9 15 14 11 12 10 8 7 7 4 5 4 3 2 3 2 3 4 2 1 0 4 4 2 3 3 2 1 2 4
8 7 6 8 5 5 10 6 10 17 13 10 13 19 17 21 21 19 17 12 14 16 12 11 11 8 7 7 7 5 4 3 2 2 3 3 4 3 3 5 6 4 3 3 3 4 3 1 1
6 4 5 6 1 2 8 8 6 16 20 16 14 17 20 23 23 22 21 18 17 15 14 11 9 8 8 8 7 7 6 5 3 2 2 2 2 2 6 5 5 2 2 2 2 2 3 2 2
4 4 2 4 2 8 8 7 10 20 18 21 14 14 11 24 24 23 23 20 19 17 17 13 12 8 8 8 7 7 6 6 5 3 2 2 1 2 3 4 4 1 2 3 2 2 3 3 0
8 10 7 7 5 10 12 8 7 22 22 20 16 16 15 10 20 23 21 19 22 20 19 18 15 9 8 8 8 7 7 3 3 3 4 3 2 2 3 3 4 3 3 3 4 2 2 3 1
11 6 10 3 4 3 5 6 7 13 15 17 17 13 16 16 12 17 21 20 21 19 20 20 17 13 10 8 7 7 6 5 5 5 4 2 3 2 2 3 1 2 3 3 2 2 2 0 1
12 8 3 4 2 6 6 2 3 6 10 10 13 14 14 14 17 19 17 18 17 18 18 18 17 17 12 10 8 6 7 7 6 5 5 4 3 2 2 2 2 3 4 4 3 3 3 2 2
2 5 4 7 7 6 2 3 4 10 10 11 9 15 15 16 14 16 18 17 18 17 17 17 16 16 12 11 9 7 7 7 7 6 5 5 4 4 4 4 4 5 5 5 4 4 5 5 5
9 10 10 7 6 2 6 7 12 11 9 10 8 8 8 11 18 21 23 15 16 18 17 17 16 15 13 10 10 8 8 6 6 6 6 5 5 4 5 4 4 4 5 6 5 6 4 5 5
Wind_Direction
185 199 185 309 8 201 103 92 127 127 121 182 138 198 102 131 93 124 142 124 121 118 120 114 116 115 115 115 114 111 114 109 102 99 99 97 100 100 97 96 90 89 90 89 93 91 86 85 79
214 211 174 283 219 80 78 84 86 115 139 158 133 106 71 72 89 114 120 127 127 126 118 119 121 118 119 122 123 122 116 112 102 99 100 104 106 102 102 99 98 95 91 94 91 88 88 76 79
229 216 144 188 137 99 96 108 80 112 142 143 123 114 86 119 120 105 128 125 114 114 118 130 126 126 127 129 128 123 121 115 113 109 112 111 111 113 104 100 99 103 110 103 93 87 87 78 60
227 20 306 149 108 105 102 94 98 100 99 110 109 70 71 107 105 119 109 111 110 120 126 135 134 127 126 125 122 121 123 122 122 120 115 116 110 104 101 104 106 107 101 93 95 88 78 86 73
87 67 312 64 111 119 126 113 108 103 93 93 105 106 94 97 113 115 117 117 118 118 126 133 136 132 126 123 120 125 127 125 119 115 116 111 106 105 109 108 112 113 110 107 90 75 62 52 18
26 33 17 87 78 52 99 100 99 98 99 103 108 111 112 133 136 140 133 126 122 124 124 131 132 130 134 135 133 130 131 130 125 122 115 114 119 131 133 137 144 156 162 143 156 207 172 266 279
87 328 294 80 84 69 86 108 108 116 124 112 122 123 138 144 145 142 144 132 123 127 123 130 132 141 138 139 138 138 133 129 126 121 125 135 147 146 164 192 210 217 245 245 238 254 227 251 266
140 138 313 3 338 99 98 109 127 128 121 128 129 139 145 154 133 134 130 131 126 132 137 137 135 130 132 142 148 146 140 140 137 134 148 162 179 181 99 338 269 253 257 265 274 269 278 273 270
119 111 111 188 182 82 48 121 118 121 134 154 143 132 143 130 134 126 126 133 131 142 145 147 154 155 148 139 155 152 153 155 154 155 183 199 207 179 214 248 251 256 260 255 260 265 264 265 275
125 281 153 177 195 111 116 88 42 121 135 117 126 120 129 132 133 139 135 136 137 140 154 160 162 166 154 160 162 165 169 166 168 182 196 201 206 210 236 234 252 242 261 251 251 251 253 271 243
174 222 104 105 78 107 103 100 143 101 137 143 136 143 146 138 138 142 153 154 161 158 160 164 156 147 159 142 170 178 178 174 188 193 194 208 177 202 202 234 243 249 269 259 270 249 233 265 253
90 109 117 124 111 108 92 122 182 106 207 130 133 144 139 142 154 154 147 148 160 166 176 157 133 127 160 167 179 186 180 190 197 203 192 177 200 208 209 193 236 242 267 219 264 257 265 315 308
97 105 108 118 128 139 137 145 159 154 123 126 134 146 147 144 145 141 140 139 147 138 137 145 146 140 154 164 164 168 209 197 196 184 192 181 186 190 201 206 296 297 301 343 1 1 336 342 324
90 134 126 124 115 112 104 106 96 235 171 131 142 150 162 153 154 135 126 128 129 130 144 151 164 141 141 128 88 313 57 182 172 171 196 204 176 199 169 169 274 340 332 344 333 290 299 308 296
180 119 118 104 120 121 116 126 116 130 128 140 150 162 172 168 152 152 147 143 146 160 147 162 149 141 155 159 166 239 283 327 78 194 199 194 188 185 161 176 208 257 275 313 334 321 311 295 287
152 127 116 137 115 145 116 140 142 142 149 159 168 175 175 169 151 156 149 150 151 161 146 145 152 164 157 160 178 201 266 289 302 292 236 223 208 193 161 167 221 252 265 263 288 286 300 304 312
164 189 129 135 150 138 106 150 157 167 168 174 181 175 160 159 149 153 147 152 158 154 139 152 161 159 166 166 176 219 245 259 254 273 264 349 92 130 133 192 265 300 300 282 274 282 238 298 294
190 214 149 148 194 144 132 155 165 176 173 181 178 159 162 172 160 150 155 148 150 147 156 169 165 160 153 163 182 212 231 244 292 262 146 192 174 143 150 344 297 294 291 295 296 277 288 244 263
203 178 116 254 184 136 177 155 172 177 167 171 165 160 166 163 158 155 161 159 150 157 165 172 158 154 131 134 151 197 216 232 256 252 237 206 346 51 112 223 267 286 264 273 272 252 252 317 331
240 158 183 218 169 122 172 161 165 75 276 174 173 175 174 158 156 162 166 173 177 167 172 162 151 145 158 158 172 162 180 232 220 241 273 165 78 195 212 168 170 34 0 344 357 358 5 299 24
241 189 201 175 178 166 132 108 98 190 214 202 172 175 181 157 155 166 171 179 165 168 162 162 161 160 159 174 156 172 319 297 66 42 98 93 87 84 80 67 59 28 42 3 342 12 15 344 330
243 261 285 147 156 180 177 193 190 200 239 199 174 178 173 156 156 149 167 160 157 167 163 158 161 163 174 176 171 165 180 189 243 127 128 116 117 148 161 204 74 79 59 22 10 1 352 32 306
217 255 216 259 209 187 192 109 223 190 238 188 181 178 174 166 164 162 166 179 161 161 162 157 163 169 164 144 137 131 123 114 87 94 97 36 356 260 217 119 99 70 40 1 24 354 335 283 217
216 233 298 246 160 9 227 156 177 181 201 202 164 174 181 170 171 172 172 177 166 162 156 154 144 148 150 138 146 136 133 133 101 65 32 19 333 34 103 103 92 87 8 336 308 312 316 297 285
181 131 294 355 341 228 252 260 201 195 188 189 181 175 180 178 172 176 176 176 167 162 160 152 144 158 160 160 164 165 156 146 157 184 169 157 73 96 138 119 115 142 250 274 288 303 312 305 122
207 159 157 202 195 240 246 243 230 187 189 189 180 195 193 162 180 176 175 173 167 165 161 157 154 156 169 174 172 148 148 153 200 172 155 143 164 174 174 151 158 207 255 265 254 253 288 285 178
228 174 204 211 251 324 253 165 19 168 185 184 189 188 202 203 173 164 179 169 168 165 164 160 160 158 168 181 162 157 166 172 162 154 143 156 118 157 131 149 167 280 303 297 262 255 277 110 123
158 167 242 347 223 285 267 311 224 136 137 147 190 190 206 197 191 172 161 162 169 168 164 161 164 165 169 163 167 176 186 189 180 166 176 193 220 213 233 227 238 276 295 301 278 264 260 276 262
141 176 180 171 153 194 265 258 215 138 149 156 167 163 198 184 163 124 148 185 170 163 163 162 164 165 164 166 169 182 195 192 183 173 193 204 212 215 218 221 237 251 269 278 273 243 243 255 246
196 185 169 129 276 223 156 249 161 158 147 122 114 129 117 117 165 173 175 177 177 166 164 167 167 164 174 166 168 171 172 175 188 188 194 202 201 223 223 233 249 262 269 269 258 244 239 229 248